Temperature
18 18 18 18 18 18 18 18 18 18 18 18 18 18 18 18 18 18 18 18 18 18 18 18 18 18 18 18 18 18 18 18 18 18 18 18 18 18 18 18 18 18 18
18 18 18 18 18 18 18 18 18 18 18 18 18 18 18 18 18 18 18 18 18 18 18 18 18 18 18 18 18 18 18 18 18 18 18 18 18 18 18 18 18 18 18
18 18 18 18 18 18 18 18 17 17 17 18 18 17 17 17 17 17 17 17 17 17 17 17 18 18 18 18 18 18 18 18 18 18 18 18 18 18 18 18 18 18 18
18 17 18 18 18 18 18 17 17 17 17 17 17 17 17 17 17 17 17 17 17 17 17 17 17 17 17 17 18 18 18 18 18 18 18 18 18 18 18 18 18 18 18
18 18 18 18 18 18 17 17 17 17 17 17 17 17 17 17 17 16 17 17 17 17 17 17 17 17 17 17 17 17 17 17 18 18 18 18 18 18 18 18 18 18 18
18 18 18 17 17 17 17 17 17 17 17 17 17 16 16 16 16 16 16 16 16 16 16 17 17 17 17 17 17 17 17 17 17 18 18 18 18 18 18 18 18 18 18
18 18 17 17 17 17 17 17 17 17 16 16 16 16 16 16 16 16 16 16 16 16 16 16 16 16 17 17 17 17 17 17 17 17 17 17 18 18 18 18 18 17 18
18 17 17 17 17 17 17 16 16 16 16 16 16 16 16 16 16 16 16 16 16 16 16 16 16 16 16 16 17 17 17 17 17 17 17 17 17 17 17 17 17 17 17
18 17 17 17 17 17 16 16 16 16 16 16 16 16 16 16 16 16 15 15 15 15 16 16 16 16 16 16 16 17 17 17 17 17 17 17 17 17 17 17 17 17 17
17 17 17 17 17 17 16 16 16 16 16 16 16 16 16 15 15 15 15 15 15 15 15 15 16 16 16 16 16 16 16 17 17 17 17 17 17 17 17 17 17 17 17
18 17 17 17 17 17 17 16 16 16 16 16 16 16 16 15 15 15 15 15 15 15 15 15 15 16 16 16 16 16 16 16 17 17 17 17 17 17 17 17 17 17 17
18 18 17 17 17 17 17 16 16 16 16 16 16 16 16 15 15 15 15 15 15 15 15 15 15 15 15 16 16 16 16 16 16 17 17 17 17 17 17 17 17 17 17
18 18 18 17 17 17 17 16 16 16 16 16 16 16 15 15 15 15 15 15 15 15 15 15 15 15 15 15 16 16 16 16 16 16 16 17 17 17 17 17 17 17 17
18 18 18 17 17 17 17 16 16 16 16 16 16 15 15 15 15 15 15 15 15 15 15 15 15 15 15 15 15 16 16 16 16 16 16 16 17 17 17 17 17 17 17
18 18 18 18 17 17 17 17 16 16 16 16 15 15 15 15 15 15 15 15 15 15 15 15 15 15 15 15 15 15 15 16 16 16 16 16 16 16 16 16 17 17 17
18 18 18 18 17 17 17 16 16 16 16 16 15 15 15 15 15 15 14 14 14 14 14 15 15 15 15 15 15 15 15 15 16 16 16 16 16 16 16 16 16 16 17
18 18 18 18 17 17 17 16 16 16 16 15 15 15 15 15 14 14 14 14 14 14 14 14 14 15 15 15 15 15 15 15 15 16 16 16 16 16 16 16 16 16 16
19 18 18 18 17 17 17 16 16 16 16 15 15 15 15 14 14 14 14 14 14 14 14 14 14 15 15 15 15 15 15 15 15 15 15 16 16 16 16 16 16 16 16
19 18 18 18 18 17 17 17 16 16 16 15 15 15 15 14 14 14 14 14 14 14 14 14 14 14 15 15 15 15 15 15 15 15 15 15 16 16 16 16 16 16 16
19 18 18 18 18 17 17 17 16 16 16 15 15 15 15 15 14 14 14 14 14 14 14 14 14 14 14 14 15 15 15 15 15 15 15 15 15 15 16 16 16 16 16
18 18 18 18 18 17 17 17 16 16 16 16 15 15 15 15 15 14 14 14 14 14 14 14 14 14 14 14 14 15 15 15 15 15 15 15 15 15 15 16 16 16 16
19 18 18 18 18 17 17 17 16 16 16 15 15 15 15 15 15 14 14 14 14 14 14 14 14 14 14 14 14 14 14 15 15 15 15 15 15 15 15 15 16 16 16
18 18 18 18 17 17 17 17 16 16 16 16 15 15 15 15 15 14 14 14 14 14 14 14 13 13 13 13 13 13 13 13 14 15 15 15 15 15 15 15 15 16 16
18 18 18 18 17 17 17 16 16 16 16 15 15 15 15 15 15 14 14 14 14 14 14 14 13 13 13 13 13 13 13 13 13 14 14 14 15 15 15 15 15 15 15
18 18 18 17 17 17 17 16 16 16 15 15 15 15 15 15 15 14 14 14 14 14 14 14 13 13 13 13 13 13 13 13 13 13 13 14 15 15 15 15 15 15 15
18 18 17 17 17 17 16 16 16 15 15 15 15 15 15 15 14 14 14 14 14 14 14 13 13 13 13 13 13 13 13 13 13 13 13 13 14 14 15 15 15 15 15
Wind_Speed
1 0 5 9 10 11 12 13 13 13 13 13 13 12 12 11 10 10 10 9 9 8 8 7 7 7 7 7 7 6 6 6 6 6 5 5 4 3 3 4 4 4 4
2 3 7 9 11 11 12 12 12 13 13 12 12 11 11 10 9 9 8 8 8 7 7 7 7 6 6 6 6 6 6 6 6 5 5 5 4 3 3 3 4 3 4
4 6 8 10 11 11 12 12 12 12 12 12 11 10 10 9 9 8 7 7 7 7 6 6 6 6 5 5 6 6 6 6 5 5 5 5 4 2 2 2 3 4 4
5 6 8 10 11 11 11 11 11 11 11 11 10 10 9 9 8 7 7 7 7 6 6 6 5 5 5 5 6 6 6 6 6 5 4 5 4 2 2 2 3 3 4
6 6 8 10 10 11 11 10 10 10 10 10 9 9 9 8 7 7 7 6 6 6 6 6 6 6 6 6 7 7 7 6 6 6 4 4 4 2 2 2 2 2 3
5 6 7 9 10 10 10 9 9 9 9 9 8 8 8 7 7 6 6 6 6 6 6 6 6 6 6 7 7 7 7 6 6 5 4 4 4 3 2 1 2 2 3
4 5 6 8 9 9 9 8 8 8 8 8 8 7 7 7 6 5 5 5 5 6 6 6 6 6 7 7 7 7 6 6 4 4 3 4 4 3 2 1 1 2 2
5 4 5 7 7 7 7 7 7 7 7 7 7 7 7 7 6 6 6 6 6 6 6 6 6 7 7 8 8 7 7 6 4 3 3 3 4 2 2 1 1 1 2
4 4 4 5 6 6 6 6 6 6 6 7 7 7 7 7 7 7 7 7 7 7 7 7 7 7 8 8 8 7 7 5 4 3 3 3 4 3 2 2 1 1 2
3 3 3 4 4 4 5 5 6 6 7 7 7 7 8 8 8 8 8 8 8 8 8 8 8 8 8 8 8 7 7 5 3 3 3 4 4 3 2 2 1 1 1
2 1 1 2 3 3 4 5 6 7 8 8 8 8 8 8 8 8 9 8 8 9 9 10 9 9 8 8 8 8 7 5 4 3 4 4 4 4 3 3 2 2 1
1 1 0 1 1 3 3 5 6 6 7 7 8 8 8 8 8 8 9 9 9 9 10 10 10 9 8 8 8 8 6 5 4 4 4 5 4 4 4 3 3 2 2
2 1 1 1 1 2 2 3 4 5 6 6 7 7 7 7 8 9 9 9 10 9 9 9 9 8 7 6 6 6 6 5 4 4 6 6 6 5 4 3 3 3 2
2 1 1 1 1 2 3 3 3 3 4 5 6 6 6 5 5 6 5 7 7 7 7 7 6 7 6 6 6 5 5 4 4 4 5 6 6 6 5 4 3 2 2
2 1 1 2 2 2 2 2 3 3 3 4 5 6 5 3 3 4 4 6 6 6 5 5 5 5 5 5 6 5 5 5 5 5 5 7 7 6 6 5 4 3 2
2 2 1 2 2 2 2 2 2 2 3 4 5 6 5 4 3 3 3 4 5 6 5 4 4 3 3 3 4 5 4 5 4 5 5 6 7 7 6 5 5 4 3
3 2 2 2 2 3 2 2 2 3 4 4 4 6 5 4 4 3 2 3 5 6 6 5 4 4 3 3 4 4 4 4 4 4 5 5 6 6 6 6 5 4 4
3 3 2 2 3 3 3 3 3 4 4 4 4 5 5 5 5 4 3 3 5 6 5 3 3 4 4 4 4 4 3 3 4 4 4 5 5 5 6 6 5 5 4
4 3 3 3 3 3 3 3 4 4 4 4 4 5 5 6 6 4 3 3 5 4 3 3 3 2 3 4 4 3 3 3 3 4 4 4 5 5 5 5 5 5 4
3 3 3 3 3 3 3 3 3 4 3 4 4 5 5 5 6 4 3 4 5 3 4 4 3 3 2 3 4 4 4 3 3 3 3 4 4 5 4 4 3 4 4
3 3 3 3 2 3 2 2 2 2 2 3 4 5 6 6 6 5 3 3 4 3 3 4 3 4 3 3 3 4 4 3 3 3 3 3 4 5 4 3 3 3 3
2 2 2 2 2 2 1 1 1 1 1 1 3 5 6 6 6 4 3 3 3 3 5 4 3 2 3 3 2 2 4 5 4 4 4 3 4 4 3 3 3 2 2
2 1 2 2 2 2 2 2 3 3 3 3 4 4 5 7 6 4 3 3 3 3 3 4 3 2 2 3 2 2 1 2 4 4 4 4 4 3 3 3 3 3 2
0 1 2 2 2 2 3 3 2 2 1 2 2 3 5 6 6 5 4 3 2 2 3 3 2 1 1 2 2 1 1 2 1 4 4 4 4 4 4 3 3 3 3
1 2 3 3 3 3 3 3 3 2 1 2 2 4 5 5 6 6 5 3 3 2 3 3 3 2 1 1 1 1 1 0 1 1 4 5 4 4 3 3 2 3 3
3 3 3 4 3 3 3 3 2 2 2 2 3 4 4 4 4 6 5 4 3 3 3 3 3 2 2 2 2 1 1 1 2 2 2 3 4 4 4 3 2 2 3
Wind_Direction
356 64 109 105 104 102 100 98 96 94 94 91 91 93 93 91 87 84 81 80 80 79 77 75 71 67 64 61 57 51 49 49 47 48 47 46 45 49 51 51 59 55 53
129 107 104 102 102 101 99 96 95 93 91 88 88 89 89 88 85 79 76 74 73 70 66 64 61 58 56 50 45 40 36 36 37 39 39 32 30 41 52 54 62 63 56
100 98 99 100 99 99 98 94 92 91 89 88 86 85 83 81 80 76 71 68 66 62 58 54 50 43 39 35 31 27 23 21 23 29 38 25 17 34 47 59 65 61 52
103 97 102 103 98 96 96 93 90 88 86 86 85 83 81 79 76 71 67 63 58 55 52 46 38 29 26 23 19 15 15 13 14 27 30 13 3 19 34 53 64 61 50
100 100 107 104 99 96 95 92 89 86 84 83 82 80 76 74 71 67 63 58 52 48 45 36 28 24 19 14 9 9 11 13 18 24 20 10 1 359 21 41 58 54 53
100 100 108 106 100 97 93 90 87 84 82 79 76 71 65 59 59 55 51 48 42 36 32 23 12 8 5 2 2 2 4 6 16 20 14 2 353 353 4 26 50 43 50
109 101 107 108 101 96 92 88 85 82 78 73 68 60 52 43 39 34 27 24 26 21 15 8 359 354 352 349 351 354 358 359 9 17 7 346 335 342 350 352 28 36 44
118 101 98 103 100 95 88 82 77 73 68 61 52 45 36 31 25 17 15 10 8 4 360 356 352 350 347 344 345 349 351 353 357 358 338 323 321 333 333 328 344 27 22
94 87 72 72 71 74 72 67 61 56 50 44 41 34 25 22 17 13 7 5 2 1 1 358 352 348 346 346 347 348 349 353 357 335 318 310 308 322 330 337 311 337 2
80 74 67 62 60 50 42 43 44 41 37 34 31 29 25 22 16 12 6 3 6 10 11 8 3 359 358 356 354 354 357 2 352 334 313 296 289 293 319 336 325 306 332
101 72 71 57 44 32 23 33 33 33 34 32 27 27 27 21 17 15 12 10 8 10 11 11 8 9 12 9 5 5 7 5 344 329 306 292 289 287 299 316 304 308 309
187 232 137 85 33 18 23 31 25 30 32 31 29 30 31 28 26 24 19 18 14 13 13 13 16 19 18 10 3 4 7 359 349 329 317 308 302 292 285 281 277 285 303
182 193 149 134 57 32 26 28 31 29 28 30 32 35 39 37 32 29 25 20 16 14 13 9 14 16 14 6 359 356 355 352 340 329 321 318 312 303 289 274 268 262 270
127 156 108 116 95 51 49 44 43 34 28 28 28 36 45 39 27 20 22 13 13 8 5 7 4 3 5 2 0 355 353 347 332 325 319 321 313 308 300 287 276 274 276
128 136 118 115 108 81 68 54 59 45 38 35 34 37 48 50 27 16 15 15 9 6 2 357 358 359 3 358 359 359 352 346 336 328 322 324 320 311 304 293 280 274 280
145 126 92 94 105 103 88 74 64 60 54 46 39 37 44 51 43 27 14 8 2 360 357 356 351 351 349 349 350 349 344 344 339 332 326 328 325 319 309 295 288 277 277
140 119 115 116 93 98 94 80 74 64 58 46 36 36 39 44 41 36 19 1 353 359 5 7 0 1 358 357 350 342 341 339 337 331 329 325 323 325 321 303 290 284 277
129 120 110 101 97 89 79 71 63 57 52 41 34 31 31 35 36 35 26 0 352 2 9 2 3 359 356 354 343 336 338 335 333 328 327 324 322 320 320 315 295 284 275
138 129 101 83 86 82 70 64 59 54 45 32 31 26 20 27 29 33 23 360 360 7 5 1 11 1 347 344 333 334 336 334 330 336 332 324 319 313 311 311 309 295 275
119 110 102 85 79 81 69 58 48 41 29 24 22 14 14 16 15 21 16 6 10 11 2 1 354 354 338 331 336 342 332 334 340 347 337 336 327 318 313 308 307 305 290
94 98 103 102 89 84 70 70 60 27 358 356 0 3 6 8 9 13 7 0 7 8 353 352 354 355 351 346 2 346 338 345 2 357 348 344 341 335 330 316 304 297 298
103 117 122 121 108 97 88 105 108 98 343 327 341 357 3 360 360 5 4 349 351 355 357 2 10 359 352 11 31 18 352 345 345 353 351 352 341 339 338 330 317 300 290
86 132 144 137 118 104 97 81 57 40 19 10 0 352 347 346 345 347 348 346 348 357 343 341 353 14 346 349 35 86 59 315 315 327 342 348 344 340 331 332 331 319 294
134 91 96 106 96 84 93 89 88 83 25 317 320 325 333 349 348 345 340 341 341 341 333 328 352 333 352 332 337 3 194 205 289 325 327 333 337 333 327 332 333 327 315
101 98 95 93 76 63 75 86 88 69 353 328 337 341 342 342 347 348 344 341 330 322 319 327 336 331 282 263 286 301 322 311 214 224 307 323 333 321 318 313 311 315 311
88 90 92 93 70 58 69 70 79 66 16 5 350 344 341 337 336 345 346 342 325 315 311 312 313 313 289 267 261 244 228 240 239 211 259 300 313 308 316 314 307 309 309
Height
1525 1525 1526 1526 1527 1528 1528 1529 1530 1530 1531 1531 1531 1532 1532 1533 1533 1533 1533 1533 1533 1533 1533 1533 1533 1533 1533 1532 1532 1532 1531 1531 1531 1530 1530 1529 1529 1529 1528 1527 1527 1526 1526
1526 1526 1527 1527 1528 1529 1529 1530 1531 1531 1532 1532 1533 1533 1533 1534 1534 1534 1534 1534 1534 1534 1534 1534 1534 1533 1533 1533 1533 1532 1532 1532 1531 1531 1531 1530 1530 1529 1529 1528 1527 1527 1526
1527 1528 1528 1529 1530 1530 1531 1531 1532 1532 1533 1533 1534 1534 1534 1534 1534 1535 1535 1535 1535 1534 1534 1534 1534 1534 1534 1533 1533 1533 1532 1532 1532 1532 1531 1531 1530 1530 1529 1529 1528 1527 1527
1529 1529 1530 1531 1531 1532 1532 1533 1533 1533 1534 1534 1535 1535 1535 1535 1535 1535 1535 1535 1535 1535 1534 1534 1534 1534 1534 1534 1533 1533 1533 1533 1532 1532 1532 1531 1531 1530 1529 1529 1528 1528 1527
1530 1531 1532 1532 1533 1533 1534 1534 1534 1535 1535 1535 1536 1536 1536 1536 1536 1536 1536 1535 1535 1535 1534 1534 1534 1534 1534 1533 1533 1533 1533 1533 1532 1532 1532 1531 1531 1530 1530 1529 1528 1528 1527
1532 1533 1534 1534 1535 1535 1535 1536 1536 1536 1536 1536 1537 1537 1537 1537 1536 1536 1536 1535 1535 1535 1534 1534 1534 1533 1533 1533 1533 1533 1533 1532 1532 1532 1532 1531 1531 1531 1530 1530 1529 1528 1527
1535 1535 1536 1536 1536 1537 1537 1537 1538 1538 1538 1538 1538 1538 1537 1537 1537 1537 1536 1536 1535 1535 1534 1534 1533 1533 1533 1533 1532 1532 1532 1532 1532 1532 1532 1531 1531 1531 1530 1530 1529 1528 1528
1537 1537 1538 1538 1539 1539 1539 1539 1540 1540 1539 1539 1539 1539 1539 1538 1538 1537 1537 1536 1535 1535 1534 1534 1533 1533 1532 1532 1532 1532 1531 1532 1532 1531 1531 1531 1531 1531 1530 1530 1530 1529 1528
1539 1540 1540 1540 1541 1541 1541 1541 1542 1541 1541 1541 1540 1540 1540 1539 1539 1538 1537 1537 1536 1535 1534 1534 1533 1533 1532 1532 1531 1531 1531 1531 1531 1531 1531 1531 1531 1531 1531 1530 1530 1529 1529
1541 1542 1542 1543 1543 1543 1543 1543 1543 1543 1543 1542 1542 1541 1541 1540 1539 1539 1538 1537 1536 1535 1535 1534 1533 1533 1532 1532 1531 1531 1530 1531 1531 1531 1531 1531 1531 1531 1531 1530 1530 1530 1529
1543 1544 1544 1544 1545 1545 1545 1545 1545 1545 1544 1544 1543 1542 1541 1541 1540 1539 1539 1538 1537 1536 1535 1534 1533 1532 1532 1531 1531 1531 1530 1530 1530 1531 1531 1531 1531 1530 1530 1530 1530 1529 1529
1544 1545 1546 1546 1546 1547 1547 1547 1546 1546 1545 1545 1544 1543 1542 1542 1541 1540 1539 1538 1537 1536 1535 1534 1533 1532 1532 1531 1531 1530 1530 1530 1530 1530 1530 1530 1530 1530 1530 1530 1530 1529 1529
1546 1547 1547 1547 1548 1548 1548 1548 1548 1547 1547 1546 1545 1544 1543 1542 1541 1540 1539 1538 1537 1536 1535 1534 1533 1532 1532 1531 1530 1530 1530 1530 1529 1529 1529 1529 1529 1529 1529 1530 1529 1529 1529
1547 1548 1548 1549 1549 1549 1549 1549 1549 1548 1548 1547 1546 1545 1544 1543 1542 1541 1539 1538 1537 1536 1535 1534 1533 1532 1531 1531 1530 1530 1529 1529 1529 1529 1529 1529 1529 1529 1529 1529 1529 1529 1529
1549 1549 1550 1550 1550 1550 1550 1550 1550 1549 1549 1548 1547 1546 1544 1543 1542 1541 1540 1538 1537 1536 1534 1533 1532 1532 1531 1530 1530 1529 1529 1528 1528 1528 1528 1528 1528 1528 1528 1528 1528 1528 1528
1550 1551 1551 1551 1551 1551 1551 1551 1551 1550 1550 1549 1547 1546 1545 1543 1542 1541 1540 1538 1537 1535 1534 1533 1532 1531 1530 1529 1529 1528 1528 1528 1527 1527 1527 1527 1527 1527 1527 1527 1527 1527 1527
1551 1552 1552 1552 1552 1552 1552 1552 1552 1551 1551 1550 1548 1547 1545 1544 1543 1541 1540 1538 1537 1535 1534 1533 1531 1530 1529 1528 1528 1527 1527 1527 1526 1526 1526 1526 1526 1526 1526 1526 1526 1526 1527
1552 1552 1553 1553 1553 1553 1553 1553 1552 1552 1551 1550 1549 1548 1546 1544 1543 1541 1540 1538 1537 1535 1534 1532 1531 1529 1529 1527 1526 1526 1525 1525 1525 1525 1525 1525 1525 1525 1525 1525 1525 1526 1526
1553 1553 1554 1554 1554 1554 1554 1553 1553 1553 1552 1551 1550 1548 1547 1545 1544 1542 1540 1538 1537 1535 1533 1532 1530 1529 1528 1527 1525 1525 1524 1524 1524 1524 1524 1524 1524 1524 1524 1524 1525 1525 1525
1553 1554 1554 1555 1555 1554 1554 1554 1554 1553 1552 1551 1550 1549 1548 1546 1544 1542 1541 1539 1537 1535 1534 1532 1530 1529 1527 1526 1525 1524 1523 1523 1523 1523 1523 1523 1523 1523 1523 1523 1523 1524 1524
1554 1554 1555 1555 1555 1555 1555 1554 1554 1553 1553 1552 1551 1549 1548 1546 1545 1543 1541 1540 1538 1536 1534 1532 1530 1529 1527 1526 1524 1523 1523 1522 1522 1522 1522 1522 1522 1522 1522 1522 1522 1522 1523
1553 1554 1555 1555 1555 1555 1555 1554 1554 1554 1553 1552 1551 1550 1548 1547 1545 1543 1542 1540 1538 1536 1534 1533 1531 1529 1528 1526 1525 1523 1523 1523 1522 1521 1521 1521 1520 1520 1520 1520 1521 1521 1521
1553 1554 1554 1555 1555 1555 1555 1555 1554 1554 1553 1552 1551 1550 1548 1547 1545 1544 1542 1540 1538 1536 1535 1533 1531 1530 1528 1527 1526 1525 1524 1523 1522 1521 1520 1520 1520 1519 1519 1519 1519 1519 1520
1552 1554 1554 1555 1555 1555 1555 1554 1554 1553 1552 1551 1550 1549 1548 1547 1545 1543 1542 1540 1538 1537 1535 1533 1532 1530 1529 1527 1526 1526 1525 1524 1523 1521 1520 1520 1519 1518 1518 1518 1518 1518 1518
1552 1553 1554 1554 1554 1554 1554 1554 1553 1553 1552 1551 1550 1549 1547 1546 1545 1543 1542 1540 1538 1537 1535 1533 1532 1530 1529 1528 1526 1525 1525 1524 1523 1522 1519 1518 1518 1518 1517 1517 1517 1517 1517
1552 1553 1553 1554 1554 1554 1554 1553 1553 1552 1551 1550 1549 1548 1547 1545 1544 1542 1541 1539 1538 1536 1535 1533 1531 1530 1529 1527 1526 1525 1524 1523 1522 1521 1519 1518 1517 1516 1516 1516 1516 1516 1516